This is the latest recevied weather packets stored in our database for station/object KC8ZBC. If no packets are shown the sender has not sent any weather packets the latest 10 day(s).
| Time | Temp. | Humidity | Pressure | Rain* | Wind** | Luminosity | Snow |
|---|---|---|---|---|---|---|---|
| 1777835887 | 17.22° C | 40% | 984.6 hPa | 0 mm | - | 103 W/m² | - |
| 1777835584 | 17.22° C | 42% | 984.4 hPa | 0 mm | - | 433 W/m² | - |
| 1777835281 | 17.22° C | 41% | 984.6 hPa | 0 mm | - | 486 W/m² | - |
| 1777834978 | 16.11° C | 42% | 984.8 hPa | 0 mm | - | 404 W/m² | - |
| 1777834674 | 16.67° C | 41% | 984.7 hPa | 0 mm | - | 177 W/m² | - |
| 1777834370 | 16.67° C | 42% | 985 hPa | 0 mm | - | 470 W/m² | - |
| 1777834065 | 17.22° C | 42% | 984.4 hPa | 0 mm | - | 279 W/m² | - |
| 1777833762 | 16.67° C | 43% | 985 hPa | 0 mm | - | 399 W/m² | - |
| 1777833457 | 16.11° C | 43% | 984.8 hPa | 0 mm | - | 371 W/m² | - |
| 1777833155 | 16.67° C | 42% | 985 hPa | 0 mm | - | 561 W/m² | - |
| 1777832853 | 16.67° C | 41% | 984.9 hPa | 0 mm | - | 148 W/m² | - |
| 1777832552 | 16.67° C | 43% | 985.3 hPa | 0 mm | - | 498 W/m² | - |
| 1777832248 | 15.56° C | 44% | 985.4 hPa | 0 mm | - | 492 W/m² | - |
| 1777831945 | 14.44° C | 46% | 985.7 hPa | 0 mm | - | 135 W/m² | - |
| 1777831641 | 14.44° C | 45% | 985.6 hPa | 0 mm | - | 120 W/m² | - |
| 1777831340 | 14.44° C | 46% | 985.7 hPa | 0 mm | - | 116 W/m² | - |
| 1777831036 | 14.44° C | 45% | 985.8 hPa | 0 mm | - | 97 W/m² | - |
| 1777830734 | 15° C | 44% | 985.9 hPa | 0 mm | - | 148 W/m² | - |
| 1777830430 | 15° C | 44% | 985.8 hPa | 0 mm | - | 184 W/m² | - |
| 1777830128 | 15.56° C | 42% | 985.5 hPa | 0 mm | - | 215 W/m² | - |
| 1777829827 | 15.56° C | 44% | 985.9 hPa | 0 mm | - | 334 W/m² | - |
| 1777829524 | 15.56° C | 42% | 985.9 hPa | 0 mm | - | 259 W/m² | - |
| 1777829221 | 15.56° C | 44% | 985.7 hPa | 0 mm | - | 526 W/m² | - |
| 1777828918 | 15° C | 43% | 985.9 hPa | 0 mm | - | 593 W/m² | - |
| 1777828614 | 15° C | 44% | 986.2 hPa | 0 mm | - | 450 W/m² | - |
* Rain latest hour (hover to see other rain measurements)
** Current wind speed in m/s (hover to see current wind gust speed)